Mckinley Sea — WDE5024 — position and weather

sailwx.info

Track history (hours):
 
Tides and Currents Weather Stations Pressure Air Temp Water Temp Dewpoint Dewpoint Depression Visibility Wind Speed Wind Dir Waves Ship Positions

Mckinley Sea

Owner: Kirby Offshore Marine, LLC, Staten Island, NY. More information available from US FCC via Universal Licensing System and Coast Guard Vessel Documentation Center.

Last reported at 2014-Nov-26 01:17 UTC. Time now 2014-Nov-26 09:58 UTC.
Position N 41°19' W 071°19'.

Length 46 m; draft 7 m.

Type: Towing. MMSI: 367360980.

Date/timePositionNaut miles runAvg speedWind from/ knotsBaromVisibWave heightAir tempDewpointWater temp
2014-Nov-26 01:17N 41°19' W 071°19'6 8.6
2014-Nov-26 00:32N 41°22' W 071°12'8 8.6
2014-Nov-25 23:33N 41°26' W 071°02'9 8.6
2014-Nov-25 22:30N 41°30' W 070°51'8 8.8
2014-Nov-25 21:33N 41°36' W 070°43'18 8.4
2014-Nov-25 19:27N 41°49' W 070°28'8 9.2
2014-Nov-25 18:33N 41°57' W 070°29'11 9.4
2014-Nov-25 17:25N 42°08' W 070°31'24 0.7
2014-Nov-24 08:17N 42°20' W 070°58'0 0.1
2014-Nov-24 07:31N 42°20' W 070°58'0 0.1
2014-Nov-24 06:32N 42°20' W 070°58'0 0.1
2014-Nov-24 05:32N 42°20' W 070°59'0 0.1
2014-Nov-24 04:33N 42°20' W 070°59'0 0.0
2014-Nov-24 03:33N 42°20' W 070°59'0 0.0
2014-Nov-24 02:33N 42°20' W 070°59'0 0.0
2014-Nov-24 01:33N 42°20' W 070°59'0 0.1
2014-Nov-24 00:33N 42°20' W 070°59'0 0.0
2014-Nov-23 23:32N 42°20' W 070°59'0 0.1
2014-Nov-23 22:24N 42°20' W 070°58'51 3.7
2014-Nov-23 08:32N 41°29' W 070°53'7 7.6
2014-Nov-23 07:33N 41°26' W 071°02'8 8.0
2014-Nov-23 06:33N 41°22' W 071°11'8 8.2
2014-Nov-23 05:33N 41°18' W 071°21'7 7.0
2014-Nov-23 04:33N 41°18' W 071°30'8 8.0
2014-Nov-23 03:33N 41°17' W 071°41'7 7.4
2014-Nov-23 02:33N 41°16' W 071°50'7 7.0
2014-Nov-23 01:33N 41°14' W 071°60'6 6.3
2014-Nov-23 00:33N 41°14' W 072°08'7 7.0
2014-Nov-22 23:33N 41°12' W 072°17'8 7.6
2014-Nov-22 22:33N 41°10' W 072°27'8 8.2
2014-Nov-22 21:33N 41°08' W 072°37'9 8.8
2014-Nov-22 20:33N 41°06' W 072°48'10 8.8
2014-Nov-22 19:24N 41°03' W 073°01'7 8.9
2014-Nov-22 18:33N 41°02' W 073°11'10 8.6
2014-Nov-22 17:24N 41°00' W 073°24'18 8.1
2014-Nov-22 15:11N 40°52' W 073°45'5 6.4
2014-Nov-22 14:28N 40°48' W 073°49'7 6.9
2014-Nov-22 13:32N 40°46' W 073°57'7 6.7
2014-Nov-22 12:33N 40°41' W 074°02'1 1.0
2014-Nov-22 11:33N 40°40' W 074°03'0 0.0
2014-Nov-22 10:33N 40°40' W 074°03'0 0.0
2014-Nov-22 09:33N 40°40' W 074°02'0 0.2
2014-Nov-22 08:33N 40°39' W 074°03'0 0.0
2014-Nov-22 07:33N 40°39' W 074°03'0 0.0
2014-Nov-22 06:33N 40°39' W 074°03'0 0.0
2014-Nov-22 05:33N 40°39' W 074°03'2 2.1
2014-Nov-22 04:33N 40°39' W 074°05'6 5.6
2014-Nov-22 03:32N 40°36' W 074°12'0 0.4
2014-Nov-22 02:27N 40°36' W 074°12'0 0.0
2014-Nov-22 01:20N 40°36' W 074°12'0 0.0
2014-Nov-22 00:23N 40°36' W 074°12'0 0.0
2014-Nov-21 23:32N 40°36' W 074°12'0 0.0
2014-Nov-21 22:31N 40°36' W 074°12'0 0.0
2014-Nov-21 21:29N 40°36' W 074°12'0 0.0
2014-Nov-21 20:22N 40°36' W 074°12'0 0.0
2014-Nov-21 17:30N 40°36' W 074°12'2 2.3
2014-Nov-21 16:28N 40°38' W 074°12'1 0.6
2014-Nov-21 14:15N 40°38' W 074°10'0 0.5
2014-Nov-21 13:31N 40°39' W 074°10'3 3.1
2014-Nov-21 12:32N 40°36' W 074°12'0 0.0
2014-Nov-21 06:28N 40°36' W 074°12'0 0.0
2014-Nov-21 04:17N 40°36' W 074°12'0 0.0
2014-Nov-21 03:27N 40°36' W 074°12'0 0.0
2014-Nov-21 02:21N 40°36' W 074°12'3 3.7
2014-Nov-21 01:33N 40°39' W 074°11'1 0.4
2014-Nov-21 00:10N 40°38' W 074°10'3 4.8
2014-Nov-20 23:32N 40°36' W 074°12'3 1.5
2014-Nov-20 21:33N 40°39' W 074°10'0 0.0
2014-Nov-20 11:15N 40°39' W 074°10'0 0.1
2014-Nov-20 10:33N 40°39' W 074°10'6 5.7
2014-Nov-20 09:33N 40°40' W 074°03'6 6.4
2014-Nov-20 08:33N 40°45' W 073°58'27 6.4
2014-Nov-20 04:25N 40°59' W 073°27'6 7.4
2014-Nov-20 03:33N 41°01' W 073°19'7 7.4
2014-Nov-20 02:32N 41°02' W 073°09'8 7.7
2014-Nov-20 01:33N 41°03' W 072°60'8 8.1
2014-Nov-20 00:33N 41°05' W 072°49'8 8.5
2014-Nov-19 23:33N 41°07' W 072°38'9 8.9
2014-Nov-19 22:33N 41°10' W 072°27'1010.2
2014-Nov-19 21:33N 41°13' W 072°14'9 9.4
2014-Nov-19 20:33N 41°14' W 072°02'9 9.1
2014-Nov-19 19:33N 41°16' W 071°50'9 9.0
2014-Nov-19 18:33N 41°18' W 071°38'8 8.4
2014-Nov-19 17:33N 41°19' W 071°27'9 9.3
2014-Nov-19 16:33N 41°28' W 071°22'10 9.4
2014-Nov-19 15:33N 41°37' W 071°18'9 9.3
2014-Nov-19 14:33N 41°45' W 071°22'2 1.8
2014-Nov-19 13:33N 41°47' W 071°22'0 0.0
2014-Nov-19 12:18N 41°47' W 071°22'0 0.0
2014-Nov-19 11:33N 41°47' W 071°22'0 0.0
2014-Nov-19 09:33N 41°47' W 071°22'0 0.0
2014-Nov-19 08:32N 41°47' W 071°22'0 0.0
2014-Nov-19 07:32N 41°47' W 071°22'0 0.0
2014-Nov-19 06:29N 41°47' W 071°22'0 0.0
2014-Nov-19 05:33N 41°47' W 071°22'0 0.0
2014-Nov-19 04:27N 41°47' W 071°22'0 0.0
2014-Nov-19 03:33N 41°47' W 071°22'0 0.0
2014-Nov-19 02:31N 41°47' W 071°22'0 0.0
2014-Nov-19 01:29N 41°47' W 071°22'0 0.0
2014-Nov-19 00:33N 41°47' W 071°22'0 0.0
2014-Nov-18 23:33N 41°47' W 071°22'0 0.0
2014-Nov-18 22:33N 41°47' W 071°22'0 0.0
2014-Nov-18 20:19N 41°47' W 071°22'0 0.0
2014-Nov-18 18:24N 41°47' W 071°22'0 0.0
2014-Nov-18 17:33N 41°47' W 071°22'0 0.0
2014-Nov-18 16:30N 41°47' W 071°22'0 0.0
2014-Nov-18 15:33N 41°47' W 071°22'0 0.0
2014-Nov-18 14:18N 41°47' W 071°22'0 0.0
2014-Nov-18 13:32N 41°47' W 071°22'0 0.0
2014-Nov-18 12:33N 41°47' W 071°22'4 4.0
2014-Nov-18 11:33N 41°43' W 071°21'6 5.8
2014-Nov-18 10:33N 41°38' W 071°18'7 6.6
2014-Nov-18 09:33N 41°31' W 071°20'7 7.2
2014-Nov-18 08:33N 41°25' W 071°24'7 7.2
2014-Nov-18 07:33N 41°18' W 071°28'7 7.3
2014-Nov-18 06:33N 41°17' W 071°38'8 8.0
2014-Nov-18 05:33N 41°16' W 071°48'9 9.0
2014-Nov-18 04:33N 41°14' W 072°00'10 9.8
2014-Nov-18 03:33N 41°13' W 072°13'10 9.8
2014-Nov-18 02:33N 41°10' W 072°26'9 8.8
2014-Nov-18 01:33N 41°08' W 072°37'8 8.3
2014-Nov-18 00:33N 41°06' W 072°48'52 7.3
2014-Nov-17 17:23N 40°48' W 073°52'4 4.6
2014-Nov-17 16:33N 40°46' W 073°57'4 4.5
2014-Nov-17 15:33N 40°42' W 073°60'3 3.0
2014-Nov-17 14:33N 40°40' W 074°03'3 2.9
2014-Nov-17 13:33N 40°39' W 074°06'5 4.8
2014-Nov-17 12:33N 40°38' W 074°12'2 1.6
2014-Nov-17 11:33N 40°36' W 074°12'0 0.0
2014-Nov-17 05:32N 40°36' W 074°12'0 0.3
2014-Nov-17 04:31N 40°36' W 074°12'0 0.3
2014-Nov-17 03:26N 40°36' W 074°12'0 0.0
2014-Nov-17 02:29N 40°36' W 074°12'0 0.0
2014-Nov-17 01:18N 40°36' W 074°12'0 0.0
2014-Nov-17 00:29N 40°36' W 074°12'0 0.0
2014-Nov-16 23:13N 40°36' W 074°12'3 2.9
2014-Nov-16 22:20N 40°38' W 074°12'1 1.6
2014-Nov-16 21:27N 40°38' W 074°10'0 0.0
2014-Nov-16 20:28N 40°38' W 074°10'0 0.0
2014-Nov-16 19:29N 40°38' W 074°10'0 0.0
2014-Nov-16 18:23N 40°38' W 074°10'0 0.0
2014-Nov-16 17:32N 40°38' W 074°10'2 1.7
2014-Nov-16 16:16N 40°37' W 074°12'2 2.7
2014-Nov-16 15:27N 40°39' W 074°10'2 2.8
2014-Nov-16 14:33N 40°39' W 074°07'0 0.0
2014-Nov-16 13:33N 40°39' W 074°07'0 0.0
2014-Nov-16 12:33N 40°39' W 074°07'0 0.0
2014-Nov-16 11:33N 40°39' W 074°07'5 2.5
2014-Nov-16 09:26N 40°36' W 074°12'0 0.0
2014-Nov-16 08:06N 40°36' W 074°12'0 0.0
2014-Nov-16 07:33N 40°36' W 074°12'0 0.0
2014-Nov-16 06:33N 40°36' W 074°12'0 0.0
2014-Nov-16 05:32N 40°36' W 074°12'2 1.9
2014-Nov-16 04:20N 40°38' W 074°12'2 2.0
2014-Nov-16 03:33N 40°39' W 074°10'0 0.0
2014-Nov-16 02:33N 40°39' W 074°10'0 0.0
2014-Nov-16 01:33N 40°39' W 074°10'  
Track history (hours):
 
Tides and Currents Weather Stations Pressure Air Temp Water Temp Dewpoint Dewpoint Depression Visibility Wind Speed Wind Dir Waves Ship Positions

Mckinley Sea

Owner: Kirby Offshore Marine, LLC, Staten Island, NY. More information available from US FCC via Universal Licensing System and Coast Guard Vessel Documentation Center.

Last reported at 2014-Nov-26 01:17 UTC. Time now 2014-Nov-26 09:58 UTC.
Position N 41°19' W 071°19'.

Length 46 m; draft 7 m.

Type: Towing. MMSI: 367360980.

Date/timePositionNaut miles runAvg speedWind from/ knotsBaromVisibWave heightAir tempDewpointWater temp
2014-Nov-26 01:17N 41°19' W 071°19'6 8.6
2014-Nov-26 00:32N 41°22' W 071°12'8 8.6
2014-Nov-25 23:33N 41°26' W 071°02'9 8.6
2014-Nov-25 22:30N 41°30' W 070°51'8 8.8
2014-Nov-25 21:33N 41°36' W 070°43'18 8.4
2014-Nov-25 19:27N 41°49' W 070°28'8 9.2
2014-Nov-25 18:33N 41°57' W 070°29'11 9.4
2014-Nov-25 17:25N 42°08' W 070°31'24 0.7
2014-Nov-24 08:17N 42°20' W 070°58'0 0.1
2014-Nov-24 07:31N 42°20' W 070°58'0 0.1
2014-Nov-24 06:32N 42°20' W 070°58'0 0.1
2014-Nov-24 05:32N 42°20' W 070°59'0 0.1
2014-Nov-24 04:33N 42°20' W 070°59'0 0.0
2014-Nov-24 03:33N 42°20' W 070°59'0 0.0
2014-Nov-24 02:33N 42°20' W 070°59'0 0.0
2014-Nov-24 01:33N 42°20' W 070°59'0 0.1
2014-Nov-24 00:33N 42°20' W 070°59'0 0.0
2014-Nov-23 23:32N 42°20' W 070°59'0 0.1
2014-Nov-23 22:24N 42°20' W 070°58'51 3.7
2014-Nov-23 08:32N 41°29' W 070°53'7 7.6
2014-Nov-23 07:33N 41°26' W 071°02'8 8.0
2014-Nov-23 06:33N 41°22' W 071°11'8 8.2
2014-Nov-23 05:33N 41°18' W 071°21'7 7.0
2014-Nov-23 04:33N 41°18' W 071°30'8 8.0
2014-Nov-23 03:33N 41°17' W 071°41'7 7.4
2014-Nov-23 02:33N 41°16' W 071°50'7 7.0
2014-Nov-23 01:33N 41°14' W 071°60'6 6.3
2014-Nov-23 00:33N 41°14' W 072°08'7 7.0
2014-Nov-22 23:33N 41°12' W 072°17'8 7.6
2014-Nov-22 22:33N 41°10' W 072°27'8 8.2
2014-Nov-22 21:33N 41°08' W 072°37'9 8.8
2014-Nov-22 20:33N 41°06' W 072°48'10 8.8
2014-Nov-22 19:24N 41°03' W 073°01'7 8.9
2014-Nov-22 18:33N 41°02' W 073°11'10 8.6
2014-Nov-22 17:24N 41°00' W 073°24'18 8.1
2014-Nov-22 15:11N 40°52' W 073°45'5 6.4
2014-Nov-22 14:28N 40°48' W 073°49'7 6.9
2014-Nov-22 13:32N 40°46' W 073°57'7 6.7
2014-Nov-22 12:33N 40°41' W 074°02'1 1.0
2014-Nov-22 11:33N 40°40' W 074°03'0 0.0
2014-Nov-22 10:33N 40°40' W 074°03'0 0.0
2014-Nov-22 09:33N 40°40' W 074°02'0 0.2
2014-Nov-22 08:33N 40°39' W 074°03'0 0.0
2014-Nov-22 07:33N 40°39' W 074°03'0 0.0
2014-Nov-22 06:33N 40°39' W 074°03'0 0.0
2014-Nov-22 05:33N 40°39' W 074°03'2 2.1
2014-Nov-22 04:33N 40°39' W 074°05'6 5.6
2014-Nov-22 03:32N 40°36' W 074°12'0 0.4
2014-Nov-22 02:27N 40°36' W 074°12'0 0.0
2014-Nov-22 01:20N 40°36' W 074°12'0 0.0
2014-Nov-22 00:23N 40°36' W 074°12'0 0.0
2014-Nov-21 23:32N 40°36' W 074°12'0 0.0
2014-Nov-21 22:31N 40°36' W 074°12'0 0.0
2014-Nov-21 21:29N 40°36' W 074°12'0 0.0
2014-Nov-21 20:22N 40°36' W 074°12'0 0.0
2014-Nov-21 17:30N 40°36' W 074°12'2 2.3
2014-Nov-21 16:28N 40°38' W 074°12'1 0.6
2014-Nov-21 14:15N 40°38' W 074°10'0 0.5
2014-Nov-21 13:31N 40°39' W 074°10'3 3.1
2014-Nov-21 12:32N 40°36' W 074°12'0 0.0
2014-Nov-21 06:28N 40°36' W 074°12'0 0.0
2014-Nov-21 04:17N 40°36' W 074°12'0 0.0
2014-Nov-21 03:27N 40°36' W 074°12'0 0.0
2014-Nov-21 02:21N 40°36' W 074°12'3 3.7
2014-Nov-21 01:33N 40°39' W 074°11'1 0.4
2014-Nov-21 00:10N 40°38' W 074°10'3 4.8
2014-Nov-20 23:32N 40°36' W 074°12'3 1.5
2014-Nov-20 21:33N 40°39' W 074°10'0 0.0
2014-Nov-20 11:15N 40°39' W 074°10'0 0.1
2014-Nov-20 10:33N 40°39' W 074°10'6 5.7
2014-Nov-20 09:33N 40°40' W 074°03'6 6.4
2014-Nov-20 08:33N 40°45' W 073°58'27 6.4
2014-Nov-20 04:25N 40°59' W 073°27'6 7.4
2014-Nov-20 03:33N 41°01' W 073°19'7 7.4
2014-Nov-20 02:32N 41°02' W 073°09'8 7.7
2014-Nov-20 01:33N 41°03' W 072°60'8 8.1
2014-Nov-20 00:33N 41°05' W 072°49'8 8.5
2014-Nov-19 23:33N 41°07' W 072°38'9 8.9
2014-Nov-19 22:33N 41°10' W 072°27'1010.2
2014-Nov-19 21:33N 41°13' W 072°14'9 9.4
2014-Nov-19 20:33N 41°14' W 072°02'9 9.1
2014-Nov-19 19:33N 41°16' W 071°50'9 9.0
2014-Nov-19 18:33N 41°18' W 071°38'8 8.4
2014-Nov-19 17:33N 41°19' W 071°27'9 9.3
2014-Nov-19 16:33N 41°28' W 071°22'10 9.4
2014-Nov-19 15:33N 41°37' W 071°18'9 9.3
2014-Nov-19 14:33N 41°45' W 071°22'2 1.8
2014-Nov-19 13:33N 41°47' W 071°22'0 0.0
2014-Nov-19 12:18N 41°47' W 071°22'0 0.0
2014-Nov-19 11:33N 41°47' W 071°22'0 0.0
2014-Nov-19 09:33N 41°47' W 071°22'0 0.0
2014-Nov-19 08:32N 41°47' W 071°22'0 0.0
2014-Nov-19 07:32N 41°47' W 071°22'0 0.0
2014-Nov-19 06:29N 41°47' W 071°22'0 0.0
2014-Nov-19 05:33N 41°47' W 071°22'0 0.0
2014-Nov-19 04:27N 41°47' W 071°22'0 0.0
2014-Nov-19 03:33N 41°47' W 071°22'0 0.0
2014-Nov-19 02:31N 41°47' W 071°22'0 0.0
2014-Nov-19 01:29N 41°47' W 071°22'0 0.0
2014-Nov-19 00:33N 41°47' W 071°22'0 0.0
2014-Nov-18 23:33N 41°47' W 071°22'0 0.0
2014-Nov-18 22:33N 41°47' W 071°22'0 0.0
2014-Nov-18 20:19N 41°47' W 071°22'0 0.0
2014-Nov-18 18:24N 41°47' W 071°22'0 0.0
2014-Nov-18 17:33N 41°47' W 071°22'0 0.0
2014-Nov-18 16:30N 41°47' W 071°22'0 0.0
2014-Nov-18 15:33N 41°47' W 071°22'0 0.0
2014-Nov-18 14:18N 41°47' W 071°22'0 0.0
2014-Nov-18 13:32N 41°47' W 071°22'0 0.0
2014-Nov-18 12:33N 41°47' W 071°22'4 4.0
2014-Nov-18 11:33N 41°43' W 071°21'6 5.8
2014-Nov-18 10:33N 41°38' W 071°18'7 6.6
2014-Nov-18 09:33N 41°31' W 071°20'7 7.2
2014-Nov-18 08:33N 41°25' W 071°24'7 7.2
2014-Nov-18 07:33N 41°18' W 071°28'7 7.3
2014-Nov-18 06:33N 41°17' W 071°38'8 8.0
2014-Nov-18 05:33N 41°16' W 071°48'9 9.0
2014-Nov-18 04:33N 41°14' W 072°00'10 9.8
2014-Nov-18 03:33N 41°13' W 072°13'10 9.8
2014-Nov-18 02:33N 41°10' W 072°26'9 8.8
2014-Nov-18 01:33N 41°08' W 072°37'8 8.3
2014-Nov-18 00:33N 41°06' W 072°48'52 7.3
2014-Nov-17 17:23N 40°48' W 073°52'4 4.6
2014-Nov-17 16:33N 40°46' W 073°57'4 4.5
2014-Nov-17 15:33N 40°42' W 073°60'3 3.0
2014-Nov-17 14:33N 40°40' W 074°03'3 2.9
2014-Nov-17 13:33N 40°39' W 074°06'5 4.8
2014-Nov-17 12:33N 40°38' W 074°12'2 1.6
2014-Nov-17 11:33N 40°36' W 074°12'0 0.0
2014-Nov-17 05:32N 40°36' W 074°12'0 0.3
2014-Nov-17 04:31N 40°36' W 074°12'0 0.3
2014-Nov-17 03:26N 40°36' W 074°12'0 0.0
2014-Nov-17 02:29N 40°36' W 074°12'0 0.0
2014-Nov-17 01:18N 40°36' W 074°12'0 0.0
2014-Nov-17 00:29N 40°36' W 074°12'0 0.0
2014-Nov-16 23:13N 40°36' W 074°12'3 2.9
2014-Nov-16 22:20N 40°38' W 074°12'1 1.6
2014-Nov-16 21:27N 40°38' W 074°10'0 0.0
2014-Nov-16 20:28N 40°38' W 074°10'0 0.0
2014-Nov-16 19:29N 40°38' W 074°10'0 0.0
2014-Nov-16 18:23N 40°38' W 074°10'0 0.0
2014-Nov-16 17:32N 40°38' W 074°10'2 1.7
2014-Nov-16 16:16N 40°37' W 074°12'2 2.7
2014-Nov-16 15:27N 40°39' W 074°10'2 2.8
2014-Nov-16 14:33N 40°39' W 074°07'0 0.0
2014-Nov-16 13:33N 40°39' W 074°07'0 0.0
2014-Nov-16 12:33N 40°39' W 074°07'0 0.0
2014-Nov-16 11:33N 40°39' W 074°07'5 2.5
2014-Nov-16 09:26N 40°36' W 074°12'0 0.0
2014-Nov-16 08:06N 40°36' W 074°12'0 0.0
2014-Nov-16 07:33N 40°36' W 074°12'0 0.0
2014-Nov-16 06:33N 40°36' W 074°12'0 0.0
2014-Nov-16 05:32N 40°36' W 074°12'2 1.9
2014-Nov-16 04:20N 40°38' W 074°12'2 2.0
2014-Nov-16 03:33N 40°39' W 074°10'0 0.0
2014-Nov-16 02:33N 40°39' W 074°10'0 0.0
2014-Nov-16 01:33N 40°39' W 074°10'  

Dump ship's entire track history